Temperature
12 11 10 11 12 13 14 14 13 12 12 13 12 12 12 13 12 12 12 12 12 11 10 10 10 10 10 10 10 10 10 10 10 10 10 10 10 10 10 9 10 10 10 10
11 10 11 13 13 13 14 13 13 12 12 12 12 12 13 12 12 12 13 12 12 11 11 10 9 9 10 10 10 10 10 10 10 10 10 9 9 9 9 9 9 9 9 9
10 10 12 13 13 13 12 12 12 12 12 12 12 12 12 13 13 12 12 12 12 11 11 10 9 9 9 9 9 9 10 10 9 9 9 9 9 9 9 9 9 9 9 9
10 11 12 12 11 12 11 11 12 12 11 11 12 10 12 12 12 12 12 12 12 11 11 10 9 9 9 9 9 9 9 9 9 9 9 9 9 8 8 8 8 8 8 8
9 10 11 10 10 11 10 11 12 12 11 10 11 10 11 13 12 12 12 12 11 11 10 10 9 9 9 9 9 9 9 9 9 9 9 9 8 8 8 8 8 8 8 8
10 10 10 10 11 11 11 11 11 11 10 10 11 11 11 12 12 12 12 12 11 11 10 9 9 9 8 9 9 9 9 9 9 9 8 8 8 8 8 8 8 8 8 8
10 10 10 11 10 11 11 10 9 9 9 10 11 10 10 12 12 12 11 11 11 10 10 9 9 8 8 9 9 9 9 9 9 8 8 8 8 8 8 7 7 7 7 7
9 9 10 10 10 10 11 10 9 10 10 10 9 9 11 12 12 12 11 11 10 10 9 9 8 8 8 8 8 8 8 8 8 8 8 8 7 7 7 7 7 7 7 7
9 8 10 10 10 10 11 10 10 9 10 10 11 12 12 11 11 11 11 10 10 10 9 9 8 8 8 8 8 8 8 8 8 8 8 7 7 7 7 7 7 7 6 6
10 8 10 10 10 10 10 10 9 9 9 10 12 12 10 10 10 10 10 10 10 10 9 9 8 8 8 8 8 8 8 8 7 7 7 7 7 7 7 6 6 6 6 6
10 9 9 9 9 10 9 10 10 10 10 9 10 11 11 10 10 10 10 11 10 10 9 9 8 8 8 8 7 7 7 7 7 7 7 7 7 6 6 6 6 6 6 6
10 9 8 10 10 9 10 10 10 9 9 9 8 9 11 10 10 10 10 10 10 9 9 9 8 8 8 7 7 7 7 7 7 7 6 6 6 6 6 6 6 6 6 5
9 9 8 9 8 9 9 10 10 10 8 8 8 9 10 10 10 11 10 10 9 9 9 8 8 7 7 7 7 7 7 7 7 6 6 6 6 6 6 6 6 5 5 5
9 8 8 9 9 9 9 9 9 8 6 7 9 10 10 10 10 10 10 10 9 9 8 8 7 7 7 7 6 6 6 6 6 6 6 6 6 6 5 5 5 5 5 5
8 7 9 8 9 9 9 9 9 8 7 8 9 10 10 10 10 10 10 10 9 9 8 8 7 7 7 6 6 6 6 6 6 6 6 6 5 5 5 5 5 5 4 4
8 8 8 6 8 8 8 8 8 8 8 8 9 9 10 11 10 10 10 9 9 8 8 7 7 7 6 6 6 6 6 6 6 5 5 5 5 5 5 5 4 4 4 4
8 7 7 6 9 8 7 9 8 8 9 9 8 9 10 9 9 9 9 9 8 8 8 7 7 6 6 6 6 6 5 5 5 5 5 5 5 5 5 4 4 4 4 4
7 7 6 6 7 7 10 9 10 9 9 9 9 9 9 9 9 9 9 8 8 7 7 7 6 6 6 6 6 5 5 5 5 5 5 5 5 5 4 4 4 4 3 3
6 7 6 6 6 8 9 8 9 8 8 9 9 9 9 9 8 9 9 8 7 7 7 6 6 6 6 6 5 5 5 5 5 5 5 5 4 4 4 4 4 3 3 3
5 5 5 6 6 7 9 8 8 8 7 8 9 8 8 8 6 7 8 7 7 7 6 6 6 6 5 5 5 5 5 5 5 4 4 4 4 4 4 3 3 3 3 3
4 4 4 5 6 7 8 8 7 7 8 8 8 8 8 7 6 7 7 7 6 6 6 5 5 5 5 5 4 4 4 4 4 4 4 4 4 4 3 3 3 2 2 2
5 4 4 5 5 6 7 7 7 7 8 7 7 7 7 6 6 6 6 6 5 5 5 5 5 5 5 4 4 4 4 4 4 4 4 4 3 3 3 3 2 2 2 2
7 7 7 7 7 8 8 8 8 8 7 7 6 6 6 5 5 5 5 5 5 5 5 4 4 4 4 4 4 4 4 4 3 3 3 3 3 3 2 2 2 2 1 1
7 7 6 6 7 9 9 8 8 7 7 6 6 5 5 5 5 4 4 4 4 4 4 4 4 4 4 4 3 3 3 3 3 3 3 3 3 2 2 2 1 1 1 1
7 5 5 5 7 8 8 8 7 6 6 5 5 5 4 4 4 4 4 4 4 4 4 3 3 3 3 3 3 3 3 3 3 2 2 2 2 2 2 1 1 1 1 1
6 6 5 5 7 6 7 7 6 6 5 5 4 4 4 4 3 3 3 3 3 3 3 3 3 3 3 3 3 3 3 2 2 2 2 2 2 1 1 1 1 1 0 -0
Wind_Speed
1 2 3 1 2 3 1 3 5 4 2 1 3 4 5 6 6 6 6 6 6 5 6 6 6 6 4 3 3 2 2 2 2 2 2 2 2 2 2 4 7 8 8 9
3 4 3 2 3 3 1 4 5 4 2 1 1 4 5 7 7 6 5 5 5 5 6 7 6 5 4 3 2 2 2 2 2 2 2 1 1 1 1 2 4 7 8 8
6 3 3 1 3 3 5 3 3 2 1 2 1 3 6 6 6 6 4 4 5 5 6 6 6 5 4 3 2 2 1 1 1 2 1 2 1 1 2 2 2 4 6 7
5 3 2 5 6 5 3 4 3 1 0 1 2 2 4 7 7 7 7 5 5 5 5 6 5 4 4 4 3 2 1 1 1 1 1 1 1 1 1 1 1 2 4 5
4 5 5 6 5 6 3 2 1 2 1 1 2 2 3 6 6 7 6 6 5 5 5 5 5 4 3 4 3 3 2 1 1 1 1 1 1 1 0 1 1 2 2 4
3 3 5 3 2 3 0 1 2 1 1 2 3 3 2 3 4 5 6 6 6 5 5 5 5 4 3 4 3 3 3 2 2 2 2 2 2 1 1 1 1 1 1 2
3 3 2 2 1 0 2 2 1 1 1 3 2 1 4 2 4 5 5 5 5 5 5 4 4 4 4 4 4 3 3 2 2 2 2 2 2 2 2 1 1 1 1 1
2 2 3 3 4 2 2 3 2 1 2 0 2 4 3 5 6 5 5 4 4 4 4 4 4 4 4 4 4 3 3 3 3 3 3 2 2 2 1 1 1 0 0 1
2 1 2 2 3 4 3 2 2 1 3 2 4 4 3 5 5 4 4 4 3 3 3 4 4 4 4 4 4 4 4 3 3 3 3 3 3 2 2 2 1 1 0 0
3 1 2 2 2 1 3 3 1 0 2 3 4 3 3 4 4 4 4 3 3 2 2 2 3 3 4 4 4 4 4 4 4 3 3 3 3 3 3 2 2 1 1 0
3 0 1 2 3 2 2 1 2 2 1 2 3 1 3 4 4 4 3 3 2 2 2 2 2 3 3 3 3 4 4 4 4 4 4 3 3 3 3 3 3 2 2 1
4 1 2 2 3 4 3 2 2 1 2 2 3 3 3 6 4 3 2 1 1 1 1 2 2 2 2 3 3 3 4 4 4 4 4 4 4 3 4 3 3 3 2 2
4 2 1 1 1 2 3 4 3 2 2 3 3 4 3 4 3 3 2 1 0 0 1 1 1 2 2 3 3 3 4 4 4 4 4 4 4 4 4 4 4 3 3 3
3 3 3 3 2 1 4 5 6 4 4 5 7 5 3 2 1 1 2 2 2 2 2 2 2 3 3 3 3 3 3 3 4 4 4 5 5 5 5 4 4 4 4 4
2 3 4 7 7 6 8 8 8 10 9 7 7 6 5 3 3 1 1 1 2 2 2 2 2 3 3 3 3 3 3 3 3 4 5 6 5 5 4 4 4 4 4 4
2 3 4 6 6 7 9 11 11 11 12 12 12 12 5 1 2 2 2 2 3 3 3 3 3 3 3 3 3 2 3 3 3 4 5 5 4 4 4 5 5 4 5 4
2 2 2 4 3 6 8 8 10 7 7 8 9 7 3 2 2 3 4 3 4 3 3 3 3 3 3 3 3 3 4 3 4 5 5 5 5 5 5 5 5 5 5 5
2 2 2 4 5 6 4 2 1 6 7 7 7 5 4 3 4 5 4 3 3 3 4 4 3 3 3 3 3 3 3 3 4 5 5 5 5 6 5 5 6 5 5 5
3 3 3 2 5 7 3 2 2 2 4 4 5 4 4 4 5 4 1 2 2 3 3 3 3 4 4 4 3 3 3 4 5 6 6 6 6 6 6 6 6 5 5 5
2 3 3 3 4 5 1 3 3 2 3 2 2 1 2 3 3 3 3 4 3 3 3 3 4 4 4 4 3 3 4 5 6 6 6 5 5 6 7 7 6 5 5 5
4 4 5 6 6 7 1 4 3 2 2 1 2 2 2 3 4 4 4 4 4 5 5 4 5 5 5 4 3 5 6 7 6 5 5 5 6 6 6 6 5 5 5 5
8 7 7 6 6 7 4 5 4 2 1 1 2 3 4 5 6 6 6 6 5 5 5 5 4 5 5 4 4 6 7 7 5 4 5 5 5 6 5 6 5 5 5 5
8 7 5 7 7 2 6 4 3 1 2 2 3 4 4 6 7 7 7 6 6 6 5 4 4 6 5 5 5 7 7 5 4 5 6 5 5 5 5 6 6 5 6 5
5 2 2 5 6 3 4 4 2 1 2 3 3 4 5 6 7 7 7 6 6 5 5 4 5 6 6 6 5 6 6 5 5 6 6 5 5 5 5 5 5 5 6 6
4 5 4 7 7 5 4 2 1 2 2 3 4 5 6 7 8 7 7 7 6 5 5 4 5 7 8 7 7 6 6 5 5 6 6 5 5 5 5 5 6 7 7 8
6 7 7 7 4 3 3 1 1 2 4 4 5 5 6 6 7 7 6 6 5 6 5 6 6 7 8 7 7 6 5 5 6 6 5 5 4 5 4 4 5 8 8 10
Wind_Direction
194 96 83 69 316 309 190 139 120 103 112 205 191 189 188 181 193 202 199 188 173 166 149 138 134 131 129 119 99 74 57 35 14 4 5 13 19 20 28 31 25 16 16 10
77 50 19 344 311 322 69 112 100 102 124 220 223 239 211 185 194 200 193 176 167 160 146 142 136 139 150 149 133 115 81 46 25 13 358 335 350 354 45 39 26 19 19 14
74 45 333 26 31 51 53 63 90 98 147 196 232 264 199 179 173 173 182 176 166 161 154 149 151 158 160 157 154 129 95 66 29 357 353 345 351 352 28 19 17 20 22 19
60 25 27 55 28 13 63 31 57 92 130 183 178 271 221 171 174 179 180 187 176 157 149 147 151 161 162 160 152 144 144 125 40 341 328 311 301 323 343 5 15 20 29 24
59 25 34 49 21 11 64 345 343 289 317 358 214 205 262 156 177 185 175 170 164 152 148 145 145 152 151 146 150 161 169 165 164 265 275 293 294 292 345 8 5 357 16 24
98 46 27 29 25 22 319 269 238 282 345 287 215 193 260 170 169 154 152 151 151 145 141 140 141 150 151 144 147 168 183 190 186 213 234 229 249 264 275 289 318 330 357 14
80 90 65 329 357 58 306 345 47 13 241 238 126 187 249 131 100 120 133 138 140 145 144 149 156 170 167 164 169 179 184 201 199 205 221 227 221 236 247 253 266 317 341 357
70 72 66 17 9 337 324 355 54 224 272 250 174 225 235 109 97 95 106 116 129 147 152 161 174 180 182 180 178 183 197 212 205 205 217 213 204 217 223 229 243 256 317 349
56 93 84 36 356 337 334 42 21 332 300 282 234 201 139 124 134 143 144 147 169 170 164 168 178 185 187 187 187 191 204 212 209 210 210 209 201 206 219 219 221 216 226 271
359 102 146 142 219 221 331 346 324 9 342 297 256 202 193 160 156 155 156 167 179 166 160 169 186 191 188 191 194 194 200 205 206 207 207 209 203 200 205 199 206 207 201 136
333 105 170 200 216 184 178 228 279 289 285 286 310 333 58 114 123 135 149 161 174 168 180 204 214 206 193 189 193 204 207 204 204 205 203 210 207 201 198 196 202 201 198 193
6 331 230 186 84 29 318 274 242 259 272 242 267 271 80 100 104 101 98 91 101 141 190 204 219 219 206 204 206 211 211 211 209 202 202 207 207 203 201 204 203 196 201 200
346 302 293 190 146 181 252 247 260 309 342 262 248 249 153 131 136 128 113 109 101 171 201 220 254 252 237 223 219 223 221 218 210 200 202 209 210 207 210 209 202 196 198 201
318 285 253 271 329 246 243 230 214 207 208 246 237 252 232 208 197 168 182 202 219 228 229 239 247 258 248 233 229 236 235 218 208 205 209 215 217 212 211 207 199 197 196 199
280 277 285 289 289 275 260 250 226 218 221 236 264 286 294 306 305 290 202 249 261 264 267 269 264 265 259 247 240 234 236 227 212 212 220 224 218 209 205 203 201 200 200 204
255 280 310 287 252 254 263 250 241 237 234 246 268 281 289 331 18 347 305 292 281 280 276 275 270 268 265 259 250 247 245 234 218 223 228 226 213 207 207 207 203 202 205 206
233 284 312 288 308 300 270 240 215 214 215 223 245 255 303 329 321 304 297 288 277 280 292 289 274 264 265 257 243 244 243 240 232 232 232 224 214 212 212 209 207 209 210 207
254 240 242 288 312 261 241 50 138 214 238 234 250 280 314 317 307 289 275 266 285 306 310 305 289 276 268 262 250 239 237 238 240 239 236 228 220 218 213 209 214 215 210 210
266 244 250 260 284 277 223 157 136 203 268 243 239 271 316 347 330 308 8 40 325 306 303 300 290 277 269 263 254 242 242 243 247 245 239 232 223 221 214 215 218 216 212 215
261 266 258 243 255 262 242 121 91 72 260 43 58 333 335 355 314 284 5 3 334 320 306 297 292 283 273 265 258 251 251 248 248 247 245 236 223 220 219 220 218 213 210 216
172 202 220 235 251 267 187 142 132 183 234 41 17 341 317 272 256 294 325 319 303 293 287 283 280 275 269 264 254 253 255 251 250 248 243 235 224 221 220 218 214 211 210 211
182 186 200 200 222 249 158 146 184 216 91 341 325 323 308 293 299 307 306 297 291 289 284 278 276 276 271 259 248 255 255 254 253 249 244 237 229 225 218 212 215 209 202 210
202 202 200 205 219 209 167 188 188 120 301 309 310 312 305 295 293 296 295 291 286 284 285 280 276 281 278 262 246 256 261 256 253 251 247 241 234 226 217 213 214 212 206 212
217 184 247 270 264 250 223 224 219 231 266 293 296 296 288 281 283 288 288 288 290 289 289 289 286 284 282 275 265 260 265 256 249 251 250 241 233 232 224 217 211 212 214 217
231 172 223 255 270 277 245 221 260 313 310 298 292 286 282 280 283 285 288 289 287 289 287 283 275 275 278 279 277 271 265 256 254 252 249 243 233 230 229 224 220 221 221 218
212 209 215 238 238 242 255 309 346 301 289 288 291 291 287 279 282 287 285 285 287 288 287 283 277 276 278 279 279 277 266 251 249 254 249 242 235 230 227 231 248 238 232 237
Height
1489 1492 1495 1493 1491 1488 1487 1488 1494 1498 1499 1500 1501 1502 1502 1503 1504 1505 1507 1509 1510 1512 1513 1514 1514 1515 1516 1517 1517 1517 1517 1517 1517 1517 1517 1517 1517 1517 1516 1516 1515 1515 1514 1513
1493 1496 1495 1491 1490 1488 1488 1492 1496 1499 1499 1500 1501 1501 1499 1500 1501 1503 1504 1506 1509 1510 1512 1512 1513 1514 1515 1516 1516 1516 1516 1516 1516 1516 1516 1516 1515 1515 1515 1515 1514 1513 1512 1511
1497 1500 1495 1493 1492 1491 1494 1497 1499 1501 1501 1500 1503 1502 1498 1497 1499 1501 1503 1505 1507 1508 1510 1511 1512 1513 1514 1514 1514 1514 1514 1514 1515 1514 1514 1514 1514 1513 1513 1513 1512 1511 1510 1509
1500 1499 1497 1497 1498 1495 1501 1500 1499 1501 1504 1506 1503 1512 1498 1495 1497 1499 1501 1504 1505 1507 1509 1509 1510 1511 1512 1513 1513 1513 1513 1513 1513 1513 1513 1512 1512 1511 1511 1511 1510 1509 1509 1508
1504 1502 1501 1502 1503 1500 1504 1501 1501 1501 1503 1507 1504 1509 1503 1493 1497 1498 1499 1502 1504 1505 1507 1508 1509 1510 1510 1511 1511 1511 1511 1511 1511 1511 1511 1510 1510 1510 1509 1509 1508 1508 1507 1506
1504 1505 1504 1505 1504 1503 1503 1502 1501 1503 1506 1513 1504 1507 1505 1497 1494 1496 1498 1500 1502 1504 1506 1507 1508 1508 1509 1509 1509 1509 1509 1509 1509 1509 1508 1508 1508 1507 1507 1506 1506 1505 1504 1504
1505 1506 1507 1506 1505 1505 1504 1508 1512 1514 1515 1512 1504 1507 1505 1493 1492 1494 1497 1499 1501 1503 1504 1505 1506 1506 1507 1507 1507 1507 1507 1506 1506 1506 1506 1505 1505 1505 1504 1504 1503 1503 1502 1501
1510 1513 1509 1508 1508 1508 1506 1508 1517 1518 1514 1509 1509 1509 1499 1492 1493 1494 1497 1499 1500 1502 1503 1503 1504 1504 1504 1504 1504 1504 1504 1504 1504 1504 1503 1503 1503 1502 1502 1501 1501 1500 1500 1499
1509 1514 1510 1510 1510 1509 1507 1509 1510 1515 1509 1511 1504 1496 1493 1492 1494 1496 1497 1499 1500 1501 1501 1502 1502 1502 1502 1502 1502 1502 1502 1502 1501 1501 1501 1500 1500 1500 1499 1499 1498 1498 1497 1497
1507 1514 1510 1510 1510 1511 1511 1509 1512 1515 1516 1513 1498 1495 1499 1496 1495 1495 1497 1498 1499 1499 1500 1500 1500 1500 1500 1500 1500 1500 1499 1499 1499 1498 1498 1498 1497 1497 1496 1496 1496 1495 1494 1494
1508 1512 1513 1511 1510 1509 1511 1511 1510 1511 1512 1517 1511 1505 1493 1493 1493 1495 1496 1497 1497 1498 1498 1498 1498 1498 1498 1498 1497 1497 1496 1496 1495 1495 1495 1494 1494 1494 1493 1493 1493 1492 1491 1491
1509 1511 1513 1509 1508 1509 1509 1507 1509 1516 1514 1511 1516 1510 1493 1493 1493 1494 1495 1496 1496 1497 1496 1496 1496 1496 1495 1495 1494 1494 1493 1493 1492 1492 1491 1490 1490 1490 1490 1489 1489 1489 1488 1488
1511 1512 1516 1513 1515 1513 1510 1508 1508 1510 1515 1516 1516 1507 1494 1492 1493 1494 1495 1495 1495 1495 1495 1494 1494 1493 1493 1492 1491 1491 1490 1489 1489 1488 1487 1487 1486 1486 1486 1486 1486 1485 1485 1484
1513 1512 1515 1514 1510 1509 1509 1507 1508 1512 1521 1514 1506 1498 1494 1492 1492 1492 1493 1493 1493 1493 1493 1492 1492 1491 1490 1489 1488 1487 1487 1486 1485 1484 1484 1483 1482 1482 1482 1482 1481 1481 1481 1480
1513 1514 1509 1508 1505 1505 1505 1505 1505 1508 1508 1508 1498 1494 1491 1490 1490 1490 1491 1491 1491 1491 1491 1490 1489 1488 1487 1486 1485 1484 1483 1482 1481 1480 1480 1479 1479 1478 1478 1477 1477 1477 1477 1476
1512 1513 1511 1512 1503 1503 1503 1500 1500 1501 1500 1499 1497 1494 1489 1488 1488 1489 1489 1489 1489 1489 1488 1488 1486 1485 1484 1483 1482 1481 1480 1479 1478 1477 1476 1475 1474 1474 1473 1473 1473 1473 1472 1472
1512 1512 1514 1512 1502 1502 1502 1489 1492 1493 1491 1493 1494 1491 1487 1487 1487 1487 1487 1487 1487 1486 1486 1485 1483 1482 1481 1480 1479 1477 1476 1475 1474 1473 1472 1471 1470 1469 1469 1468 1468 1468 1468 1467
1512 1513 1516 1514 1508 1508 1488 1484 1483 1486 1486 1487 1486 1486 1486 1486 1485 1485 1484 1484 1484 1484 1483 1481 1480 1479 1478 1476 1475 1474 1472 1471 1470 1469 1468 1467 1466 1465 1464 1464 1463 1463 1463 1463
1512 1513 1514 1514 1510 1497 1486 1485 1485 1486 1486 1483 1484 1484 1484 1484 1484 1483 1482 1482 1482 1481 1480 1479 1477 1476 1474 1473 1471 1470 1468 1467 1466 1465 1463 1463 1461 1460 1460 1459 1458 1458 1458 1458
1512 1513 1515 1511 1509 1499 1486 1485 1484 1487 1487 1483 1482 1483 1483 1483 1486 1483 1481 1480 1479 1478 1476 1475 1473 1472 1470 1469 1467 1466 1464 1462 1461 1460 1459 1458 1457 1456 1455 1454 1454 1454 1453 1453
1514 1514 1515 1513 1507 1494 1484 1483 1485 1490 1487 1483 1482 1482 1482 1482 1482 1481 1478 1477 1476 1474 1473 1471 1469 1468 1466 1465 1463 1461 1460 1458 1457 1456 1455 1453 1452 1451 1450 1450 1449 1449 1449 1448
1503 1507 1507 1505 1505 1495 1482 1483 1485 1484 1482 1481 1481 1481 1480 1479 1478 1477 1475 1473 1472 1470 1468 1467 1465 1463 1462 1461 1459 1457 1455 1454 1453 1451 1450 1448 1447 1446 1445 1444 1444 1443 1443 1443
1490 1490 1489 1490 1487 1479 1478 1478 1479 1479 1479 1479 1478 1478 1477 1475 1474 1473 1471 1469 1468 1466 1464 1463 1461 1459 1457 1456 1454 1452 1451 1449 1448 1446 1444 1443 1442 1441 1440 1439 1438 1438 1437 1437
1483 1482 1484 1483 1477 1475 1476 1476 1476 1476 1476 1475 1475 1474 1473 1471 1470 1468 1467 1465 1464 1462 1460 1458 1456 1454 1452 1451 1450 1448 1446 1444 1442 1440 1439 1438 1436 1435 1435 1434 1433 1433 1432 1432
1479 1481 1482 1480 1474 1473 1472 1472 1473 1473 1472 1472 1471 1470 1469 1467 1466 1464 1462 1461 1459 1458 1456 1454 1452 1450 1448 1446 1444 1443 1441 1439 1437 1435 1434 1432 1431 1430 1429 1428 1428 1427 1427 1427
1474 1476 1477 1473 1470 1470 1469 1469 1469 1469 1468 1468 1467 1466 1465 1464 1462 1460 1458 1457 1455 1453 1451 1450 1448 1445 1443 1441 1439 1437 1436 1434 1432 1430 1428 1427 1425 1424 1423 1422 1422 1421 1421 1421